This demonstration page uses our WeatherBlox Daily Observations layout. Learn more.

39.92423, -83.80882

Hourly Observations for April 10, 2017

Temp ( °F °C ) Dew Point ( °F °C ) Humidity (%) Winds ( mph kmh ) Pressure ( in mb ) Visibility ( mi km ) Precip ( " mm )
12:56 am 00:56 Clear 63 17.2 37 2.8 38 38 S 10 17 29.93 1013 10 16.0934 0 0
1:56 am 01:56 Clear 63 17.2 37 2.8 38 38 S 7 11 29.93 1014 10 16.0934 0 0
2:56 am 02:56 Clear 64 17.8 36 2.2 35 35 SSW 13 20 29.94 1014 10 16.0934 0 0
3:56 am 03:56 Clear 64 17.8 36 2.2 35 35 SSW 16 26 29.94 1014 10 16.0934 0 0
4:56 am 04:56 Clear 63 17.2 37 2.8 38 38 SSW 12 19 29.95 1014 10 16.0934 0 0
5:56 am 05:56 Clear 62 16.7 37 2.8 40 40 SSW 12 19 29.97 1015 10 16.0934 0 0
6:56 am 06:56 Clear 62 16.7 39 3.9 43 43 SSW 14 22 29.98 1015 10 16.0934 0 0
7:56 am 07:56 Sunny 62 16.7 39 3.9 43 43 SSW 15 24 30.01 1016 10 16.0934 0 0
8:56 am 08:56 Sunny 65 18.3 41 5 42 42 SSW 18 30 30.01 1016 10 16.0934 0 0
9:56 am 09:56 Sunny 67 19.4 44 6.7 44 44 SW 23 37 30.02 1017 10 16.0934 0 0
10:56 am 10:56 Sunny 70 21.1 47 8.3 44 44 SW 20 31 30.04 1017 10 16.0934 0 0
11:56 am 11:56 Sunny 71 21.7 51 10.6 49 49 WSW 23 37 30.06 1018 10 16.0934 0 0
12:56 pm 12:56 Cloudy 73 22.8 52 11.1 48 48 SSW 20 31 30.05 1018 10 16.0934 0 0
1:56 pm 13:56 Mostly Sunny 75 23.9 53 11.7 46 46 SSW 18 30 30.02 1017 10 16.0934 0 0
2:56 pm 14:56 Sunny 76 24.4 52 11.1 43 43 S 17 28 30 1016 10 16.0934 0 0
3:56 pm 15:56 Sunny 77 25 50 10 39 39 SW 22 35 29.99 1016 10 16.0934 0 0
4:56 pm 16:56 Sunny 75 23.9 43 6.1 32 32 SW 18 30 29.98 1015 10 16.0934 0 0
5:56 pm 17:56 Sunny 75 23.9 44 6.7 33 33 SW 13 20 30 1016 10 16.0934 0 0
6:56 pm 18:56 Sunny 73 22.8 45 7.2 37 37 WSW 14 22 30.02 1017 10 16.0934 0 0
7:56 pm 19:56 Mostly Sunny 71 21.7 43 6.1 36 36 W 12 19 30.05 1018 10 16.0934 0 0
8:56 pm 20:56 Clear 61 16.1 50 10 67 67 Calm 30.06 1018 10 16.0934 0 0
9:56 pm 21:56 Clear 57 13.9 49 9.4 74 74 SE 9 15 30.04 1017 10 16.0934 0 0
10:56 pm 22:56 Clear 58 14.4 49 9.4 72 72 SE 9 15 30.04 1017 10 16.0934 0 0
11:56 pm 23:56 Clear 60 15.6 47 8.3 62 62 S 7 11 30.04 1017 10 16.0934 0 0

Powered by AerisWeather